Погода в Печетово

Россия / Тверская область     57°08′16″N   37°00′10″E
темп.,
°C
ветер,
м/с
пор.,
м/с
влажн.,
%
обл.,
%
осадки,
мм/ч
давл.,
гПа
погр.,
м
23 апреля, пт
пт2300:00+6ююв3119075 0.0 1013252
03:00+5ююв3109443 0.0 1012252
06:00+5ююв4119516 0.0 1012296
09:00+11ю5127694 0.0 1011903
12:00+13ю7136784 0.5 10101667
15:00+6з4688100 1.8 1012336
18:00+5ю2494100 6.7 1012222
21:00+5ююв2597100 7.4 1013221
24 апреля, сб
сб2400:00+4юв2397100 0.0 1011108
03:00+4юв2498100 0.5 1009168
06:00+4ююз1395100 4.9 1008438
09:00+4з2496100 6.7 1007580
12:00+5сз1484100 0.9 1007584
15:00+7сз2471100 1.4 1006998
18:00+6сз3678100 0.7 1007802
21:00+4зсз2887100 0.8 1007261
25 апреля, вс
вс2500:00+2зсз41084100 0.0 1007480
03:00+1з41184100 0.0 1007539
06:000з41188100 0.0 1007522
09:00+3з5876100 0.0 10071032
12:00+6з5851100 0.1 10072031
15:00+7з6843100 0.2 10072305
18:00+5з4857100 0.2 10081399
21:00+2зюз3976100 0.2 1009272
26 апреля, пн
пн2600:000зюз3108311 0.0 1009262
03:00−1зюз27885 0.0 1010179
06:00−1юз38875 0.0 1010243
09:00+5зюз466412 0.0 1010959
12:00+7зюз4648100 0.1 10092022
15:00+8зюз5738100 0.1 10092454
18:00+7зюз36445 0.0 10081779
21:00+2юз396723 0.0 1009181
27 апреля, вт
вт2700:000юз247935 0.0 100974
03:00−1юз22825 0.0 100829
06:000юз25805 0.0 1008145
09:00+5зюз35595 0.0 1007917
12:00+7зюз5649100 0.3 10071903
15:00+7зюз5646100 0.3 10071889
18:00+7з46499 0.0 10071650
21:00+3з3107265 0.0 1009354